FENGYUN 1C DEB, 31731

Orbit data source: Space-Track

FENGYUN 1C DEB, 31731 is space debris in SSO originally from a launch on Mon, 10 May 1999 UTC launched from the Taiyaun Space Center, China (TSC). Fengyun 1C debris stems from the Chinese weather satellite Fengyun-1C, which was intentionally destroyed by a Chinese anti-satellite missile in 2007. This event dramatically increased the amount of space debris, with thousands of trackable fragments posing hazards to satellites and human spaceflight. The Fengyun 1C debris cloud has become a focal point in discussions about space sustainability and the need for international regulations to prevent the creation of new debris.

Loading next visibility...
Identifier
31731, 1999-025CEE
Orbit
SSO
Country
Flag of CNCN / PRC
Related business
Manufacturer
Unknown
Mission
Spacecraft
Bus & Motor
Unknown
Mass
Unknown
Launch date (UTC)
1999-05-10 (27 years ago)
Launch vehicle
Unknown
Launch site
Taiyaun Space Center, China (TSC)
Object type
Payload
Rocket body
Debris
Shape & HBR
Unknown shape, 1.1 m
Radar Cross Section
Medium (>0.1 m² and <1 m²)

Expand to show TLE details & history
Last TLE update: 17 hours ago

TLE from 17 hours ago
0 FENGYUN 1C DEB
1 31731U 99025CEE 26169.63699227  .00003195  00000-0  98390-3 0  9998
2 31731  99.2944 239.3259 0009940 255.2479 104.7606 14.42230904985378
Epoch: 2026-06-18T15:17Z
TLE epoch observation values (Epoch: 2026-06-18T15:17:16.132Z)
Latitude
-0.00005°
Longitude
103.13123°
Altitude
755.875 km
Speed
7.476 km/s
True Right ascension
15h 57m 18s
True Declination
0° 00' 00"
Sunlit
Object was in full shadow at epoch
Visualization orbit readout
Latitude
Unknown
Longitude
Unknown
Altitude
Unknown
Speed
Unknown
Apparent Right ascension
Unknown
Apparent Declination
Unknown
Sunlit
N/A
Visualization observer readout
Local Sidereal Time
19:20:17
Azimuth
Unknown
Elevation
Unknown
Doppler factor
Unknown
Orbital elements
Apogee altitude
755.379 km
Perigee altitude
741.212 km
Semi-major axis
7,126.432 km
Eccentricity
0.00099
Inclination
99.2944°
RAAN
239.3259°
Arg. of periapsis
255.2479°
True anomaly
104.87071°
Mean anomaly
104.7606°
Eccentric anomaly
104.81566°
Mean motion
3.60774 °/min
Orbital period
99.79 mins
BSTAR
0.0009839
Loading maneuver chart data...
Computing Atmospheric mass density...

Documentation

Showing up to 5 results
|